Regional Weather Roundup
Issued by NWS New Orleans/Baton Rouge, LA

Home | Current Version | Previous Version | Text Only | Print | Product List | Glossary On
Versions: 1 2 3 4 5 6 7 8 9 10 11 12 13 14 15 16 17 18 19 20 21 22 23 24 25 26 27
000
ASUS44 KLIX 242313
RWRLIX
NEW ORLEANS REGIONAL WEATHER ROUNDUP
NATIONAL WEATHER SERVICE NEW ORLEANS LA
600 PM CDT SAT JUN 24 2017

NOTE: "FAIR" INDICATES FEW OR NO CLOUDS BELOW 12,000 FEET WITH NO
      SIGNIFICANT WEATHER AND/OR OBSTRUCTIONS TO VISIBILITY.
      SKY/WX - SKY CONDITION AND SIGNIFICANT WEATHER.
      TMP - AIR TEMPERATURE.     DP    - DEWPOINT TEMPERATURE.
      RH  - RELATIVE HUMIDITY.   PRES  - PRESSURE.
      HI  - HEAT INDEX.          WCI   - WIND CHILL INDEX.

*  THESE STATIONS ARE NOT NWS OR FAA STATIONS AND ARE NOT UNDER
   NWS QUALITY CONTROL.

LAZ038-040-048-061>063-065>067-069-250000-
SOUTHEAST LOUISIANA

CITY           SKY/WX    TMP DP  RH WIND       PRES   REMARKS
N.O. INTL ARPT LGT RAIN  78  75  90 N5        30.05F
N.O. LAKEFRONT CLOUDY    81  76  84 NW9       30.05F
N.O. DOWNTOWN*   N/A     81  76  84 N6          N/A
RESERVE*       RAIN      77  74  89 CALM      30.05F
SLIDELL        LGT RAIN  76  73  91 CALM      30.04R
BATON ROUGE    CLOUDY    78  75  90 CALM      30.04F
BOOTHVILLE     SUNNY     86  77  74 SW7       30.05R HX  97
BELLE CHASSE   CLOUDY    82  76  81 VRB5      30.05R
BOGALUSA*        N/A     82  76  81 W10       30.05S
GALLIANO*      CLOUDY    82  73  74 NW12      30.05R
NEW ROADS*       N/A     77  75  92 NW6       30.05F
GONZALES*      MOCLDY    80  72  78 CALM      30.05R
HAMMOND*       RAIN      72  70  94 CALM      30.04F
HOUMA*         MOSUNNY   79  73  83 N17       30.05
PORT FOURCHON* MOCLDY   N/A N/A N/A W7        30.05R

$$

MSZ070-080>082-250000-
SOUTHERN MISSISSIPPI

CITY           SKY/WX    TMP DP  RH WIND       PRES   REMARKS
MCCOMB         CLOUDY    80  76  87 CALM      30.06R
GULFPORT       CLOUDY    83  79  88 S3        30.01S
BILOXI         PTSUNNY   83  79  86 W8        30.02S
PASCAGOULA     PTSUNNY   85  75  72 SW7       30.02S
STENNIS ARPT*  LGT RAIN  77  77 100 SW5       30.03S

$$

COASTAL OBSERVATIONS
LAKE AND NEARSHORE STATIONS

STATION/POSITION TIME  TEMP    WIND        PRES    WAVE
                       AIR SEA DIR/SP/G            HT/PER
                 (UTC) (F)     (DEG/KT/KT) (MB)    (FT/S)
PASCAGOULA       2248   84     230/  6/  9 1016.2
WAVELAND YACHT   2248   78 81  210/  5/  8 1016.9
GRAND ISLE       2248   85 84  220/  4/  6 1017.7
SOUTHWEST PASS   2248   85     230/  4/  5   N/A
NEW CANAL        2248   78 83  360/  8/ 10 1017.7
SHELL BEACH      2248   81 86  280/  7/  9 1017.6

OFFSHORE STATIONS

STATION/POSITION TIME  TEMP    WIND        PRES    WAVE
                       AIR SEA DIR/SP/G            HT/PER
                 (UTC) (F)     (DEG/KT/KT) (MB)    (FT/S)
64 S DAUPHIN ISL 2250   83 83  230/  4/  6 1017.3    2/ 7

$$





USA.gov is the U.S. government's official web portal to all federal, state and local government web resources and services.